Content
SEND FEEDBACK

Daily
Averages
Monthly
Summary
United Kingdom

YORK, ENGLAND


Home > Europe > United Kingdom > England
Elevation: 27 feet     Latitude: 53 50N     Longitude: 001 11W

WEATHER
 
SELECT A DAY
Number of Records: 48,838;   Date Range: 6/27/01 - 12/19/13
 
SHARE

PRINT THIS DATA

[ ← Previous Day ]
WEATHER ALMANAC - FEBRUARY 1, 2013
[ Next Day → ]
[ °C ]   °F
Weather ElementAverageHighLow
Temperature41.9 °F46.4 °F (12:50 pm)37.4 °F (11:50 pm)
Dewpoint35.1 °F39.2 °F (12:50 pm)32 °F (10:50 pm)
Humidity75.2 %87 % (11:50 pm)58 % (2:50 am)
Barometer29.51 in29.69 in (11:50 pm)29.42 in (12:50 pm)
Wind Speed12.9 mph19.6 mph (9:50 pm)
Weather ElementAverage
Visibility9.3 mi
Wind DirectionWNW (281 °)

Weather ElementTotal
Precipitation---
Heating Degree Days23.1 (Base 65)
Averaged from 30 records on February 1, 2013
WEATHER CONDITIONS BREAKOUT
WIND DIRECTION BREAKOUT
WEATHER BY HOUR - FEBRUARY 1, 2013
[ °C ]   °F
Local TimeTemperatureDewpointHumidityBarometerVisibilityWind DirectionWind SpeedGust SpeedPrecipitationEventsConditions
1:50 AM42.8 °F33.8 °F70 %29.62 in6.2 miWSW (240°)18.4 mph
2:50 AM43.0 °F33.0 °F58 %29.60 in15.0 miWSW (250°)18.4 mphScattered Clouds
2:50 AM42.8 °F33.8 °F70 %29.59 in6.2 miWSW (250°)18.4 mphPartly Cloudy
3:50 AM42.8 °F33.8 °F70 %29.56 in6.2 miWSW (250°)18.4 mph
4:50 AM42.8 °F33.8 °F70 %29.53 in6.2 miWSW (250°)15.0 mphMostly Cloudy
5:50 AM43.0 °F34.0 °F61 %29.52 in15.0 miWSW (250°)15.0 mph
5:50 AM42.8 °F33.8 °F70 %29.50 in6.2 miWSW (250°)15.0 mphMostly Cloudy
6:50 AM42.8 °F33.8 °F70 %29.47 in6.2 miWSW (250°)11.5 mphOvercast
7:50 AM41.0 °F33.8 °F76 %29.47 in6.2 miSW (230°)10.4 mphMostly Cloudy
8:50 AM41.0 °F35.0 °F71 %29.50 in17.0 miWest (260°)9.2 mphRainLight Rain Showers
8:50 AM41.0 °F35.6 °F81 %29.47 in6.2 miWest (260°)9.2 mphRainLight Rain Showers
9:50 AM42.8 °F35.6 °F76 %29.44 in6.2 miSW (230°)12.7 mphScattered Clouds
10:50 AM44.6 °F35.6 °F71 %29.44 in6.2 miWSW (240°)13.8 mphPartly Cloudy
11:50 AM45.0 °F37.0 °F64 %29.45 in17.0 miWest (270°)11.5 mphScattered Clouds
11:50 AM44.6 °F37.4 °F76 %29.44 in6.2 miWest (270°)11.5 mphPartly Cloudy
12:50 PM46.4 °F39.2 °F76 %29.42 in6.2 miNW (320°)9.2 mphScattered Clouds
1:50 PM42.8 °F37.4 °F81 %29.42 in6.2 miWNW (300°)8.1 mphMostly Cloudy
2:50 PM42.0 °F38.0 °F79 %29.43 in25.0 miWNW (290°)5.8 mphRainRain
3:50 PM42.8 °F37.4 °F81 %29.42 in6.2 miWest (270°)6.9 mphPartly Cloudy
4:50 PM41.0 °F35.6 °F81 %29.44 in6.2 miWest (260°)6.9 mphScattered Clouds
5:50 PM40.0 °F36.0 °F78 %29.47 in22.0 miWNW (290°)6.9 mphPartly Cloudy
5:50 PM41.0 °F35.6 °F81 %29.44 in6.2 miWNW (290°)6.9 mphScattered Clouds
6:50 PM41.0 °F35.6 °F81 %29.47 in6.2 miWNW (300°)6.9 mphMostly Cloudy
7:50 PM41.0 °F35.6 °F81 %29.50 in6.2 miNNW (340°)17.3 mphMostly Cloudy
8:50 PM40.0 °F36.0 °F82 %29.56 in19.0 miNNW (340°)15.0 mphRainRain
8:50 PM41.0 °F35.6 °F81 %29.53 in6.2 miNNW (340°)15.0 mphMostly Cloudy
9:50 PM39.2 °F33.8 °F81 %29.59 in6.2 miNNW (340°)19.6 mphScattered Clouds
10:50 PM39.2 °F32.0 °F75 %29.65 in6.2 miNW (320°)16.1 mphScattered Clouds
11:50 PM38.0 °F33.0 °F77 %29.69 in14.0 miNNW (340°)19.6 mphN Precipitation
11:50 PM37.4 °F33.8 °F87 %29.68 in6.2 miNNW (340°)19.6 mphScattered Clouds
Hourly data recorded from EGXG, located miles away from York, England







STORIES FROM OUR PARTNERS